GFSNE_250_spd_090.txt.gz
Wind_Speed
63 64 66 72 71 69 70 72 71 72 72 67 67 70 67 64 68 68 61 60 64 65 64 67 70 71 71 74 76 77 80 82 81 79 83 84 83 83
69 72 70 70 68 64 68 72 74 67 67 67 67 65 66 68 64 61 62 63 64 66 67 68 72 73 75 77 80 83 84 84 82 83 87 88 90 89
70 69 66 66 70 71 75 73 69 70 66 65 63 65 63 59 58 58 62 64 64 65 67 70 74 79 80 79 81 81 80 82 85 89 92 93 94 94
71 68 66 69 74 74 74 70 71 69 66 65 58 55 56 57 58 58 59 62 63 64 66 68 68 73 77 79 79 82 85 87 87 89 92 95 97 98
66 70 72 75 75 70 67 67 65 65 59 55 54 54 54 54 56 59 63 65 68 71 72 74 76 78 81 85 86 88 92 96 100 99 100 100 100 101
73 74 75 75 71 66 59 57 55 55 55 51 51 54 58 60 63 66 68 71 75 77 78 79 80 83 88 90 93 95 98 100 104 106 107 105 104 106
76 74 61 58 53 50 50 52 53 52 54 54 56 62 64 67 70 73 76 79 80 84 84 87 87 89 92 93 96 99 103 106 110 113 113 112 111 109
56 49 43 44 47 50 51 53 55 58 60 64 67 67 71 75 78 81 83 85 87 91 92 93 96 95 97 100 102 105 108 111 115 120 120 118 115 113
41 43 45 49 54 55 57 59 64 66 68 70 73 75 79 80 83 87 88 91 93 97 99 98 102 101 103 104 106 110 114 116 119 122 122 120 117 117
48 51 54 56 58 58 60 63 66 70 72 75 80 82 83 87 92 94 96 98 101 103 106 104 106 105 107 109 111 116 119 121 121 124 123 122 120 120
54 52 56 59 60 61 64 68 71 73 77 81 84 86 90 95 99 99 101 103 103 105 110 110 110 107 107 110 115 118 121 123 122 122 123 125 125 125
62 64 67 68 68 68 70 74 78 82 86 89 91 94 97 100 101 103 105 105 108 110 112 113 113 115 112 115 118 121 122 123 123 122 123 126 127 125
71 74 77 79 80 78 81 84 86 91 93 95 97 100 104 104 105 106 109 113 115 114 116 118 118 121 122 117 116 119 122 123 123 124 125 127 124 121
77 79 80 83 84 85 88 91 94 97 99 101 103 107 107 109 109 110 113 114 116 118 120 123 123 125 124 120 117 117 120 124 126 125 126 125 120 114
83 84 85 87 88 90 95 99 101 103 104 107 110 111 110 112 114 114 117 119 120 122 123 124 126 125 123 121 121 122 124 125 125 123 121 115 108 102
89 92 93 95 98 101 103 104 106 110 112 113 114 113 114 114 118 122 124 125 125 125 126 127 128 127 127 127 126 122 121 119 116 112 107 102 98 93
96 99 100 101 106 109 112 113 113 114 117 116 116 119 122 123 128 130 131 132 130 129 125 127 128 129 130 127 121 119 112 105 101 99 96 92 88 82
96 100 107 108 111 114 116 118 120 120 121 120 123 127 130 133 135 136 135 133 129 128 128 128 128 126 120 118 118 107 99 95 94 92 88 82 80 72
106 106 109 112 113 117 120 121 123 123 125 128 131 136 138 140 139 137 134 132 129 127 126 126 120 117 108 103 104 101 88 86 85 83 78 74 70 64
108 112 115 117 119 120 122 124 124 128 130 134 139 141 142 140 138 133 128 125 125 125 120 118 112 105 98 93 92 93 82 79 77 73 69 66 62 56
115 117 118 120 122 121 123 127 130 134 139 142 144 143 138 135 129 128 126 126 122 117 114 108 101 98 92 87 83 79 76 72 68 65 60 57 54 51
121 121 121 122 123 126 129 135 140 142 143 142 137 136 131 128 125 122 122 118 115 109 103 98 95 89 84 78 74 72 68 63 60 56 52 47 46 45
126 128 129 130 133 136 139 141 141 138 136 134 132 129 129 122 120 118 114 108 103 98 95 90 85 79 75 71 67 63 59 56 52 49 46 43 42 40

GFSNE_250_spd_096.txt.gz
Wind_Speed
71 71 63 66 58 56 57 60 63 64 66 66 66 68 71 73 73 71 73 71 74 72 72 68 58 55 55 56 58 60 63 66 66 70 73 77 80 81
60 56 56 56 58 60 64 64 65 66 66 70 70 75 74 72 70 73 74 75 75 73 64 56 55 55 55 59 61 66 70 71 73 76 79 83 86 87
54 55 56 56 60 63 65 68 68 70 71 73 76 73 69 70 74 74 76 75 68 59 57 55 57 60 62 65 67 72 76 77 80 84 86 87 89 89
51 54 55 54 56 60 62 63 68 68 70 65 67 70 74 74 74 74 64 58 55 57 57 58 63 66 69 69 72 77 81 83 88 89 91 94 95 95
58 60 62 63 63 63 66 69 70 69 70 72 76 75 72 72 65 55 56 57 58 59 63 67 68 70 73 77 81 82 87 91 94 96 96 98 99 96
56 56 58 59 63 69 72 72 74 75 76 76 75 76 70 55 52 55 57 60 63 66 69 70 75 77 81 84 88 91 96 96 95 95 100 101 98 97
55 55 59 61 64 66 67 72 71 69 67 63 58 52 50 50 53 57 60 63 65 68 71 75 78 83 87 92 96 99 103 104 102 104 104 103 105 102
47 48 47 46 45 44 43 44 46 48 49 51 53 54 56 58 60 62 68 72 77 77 81 85 86 92 95 99 101 106 108 108 107 110 108 107 105 104
35 36 37 39 42 45 47 48 50 54 57 58 62 65 66 68 68 74 76 80 81 84 89 95 99 99 101 104 109 110 110 109 116 111 107 108 107 108
45 46 46 48 51 53 55 57 58 60 64 67 70 70 73 78 82 83 85 88 92 92 95 98 101 102 106 112 113 110 114 112 111 107 107 112 113 112
54 54 55 58 58 59 63 65 67 69 71 73 77 81 83 86 90 93 95 96 100 100 101 102 104 107 112 114 112 117 115 113 113 117 119 120 121 121
60 61 64 63 66 69 71 72 73 74 77 79 82 85 87 90 93 97 100 102 103 105 107 110 113 114 109 110 111 116 117 118 120 125 131 131 133 130
64 66 66 67 68 71 74 77 82 85 83 87 89 93 92 93 98 102 105 107 111 112 115 116 118 113 111 112 114 115 117 121 130 135 141 145 141 140
75 76 78 80 80 80 81 80 84 90 91 92 95 97 103 105 108 111 113 115 118 115 120 122 114 118 118 119 123 125 131 135 133 136 140 142 135 137
76 76 78 79 82 84 86 87 88 93 89 97 100 106 108 112 112 112 115 121 124 126 122 122 124 124 129 131 130 135 136 136 141 146 139 130 122 117
70 76 68 80 80 79 78 86 89 89 95 107 105 110 115 117 117 125 128 131 130 126 129 130 136 138 138 139 135 135 141 139 141 134 121 115 109 103
70 78 80 80 80 82 87 90 94 94 101 102 112 119 124 115 128 135 132 133 134 137 136 140 145 142 142 144 143 142 139 143 129 112 106 102 107 95
83 86 92 89 94 88 88 96 100 103 107 111 118 115 115 126 133 138 139 139 141 143 146 147 150 155 150 150 143 134 121 117 110 105 100 91 91 86
85 87 94 92 94 88 95 101 98 101 109 115 112 119 124 130 137 140 136 140 141 145 145 147 144 142 147 144 145 128 106 103 101 97 89 84 79 76
92 95 95 102 104 109 101 104 100 108 118 120 121 126 131 135 137 137 139 144 144 145 145 140 138 137 135 126 119 118 105 93 90 88 83 77 75 71
100 97 99 106 110 111 109 110 117 124 127 129 131 131 133 135 141 142 144 141 144 145 144 141 136 124 117 113 108 99 92 85 81 77 75 72 69 65
101 103 105 109 115 118 114 114 118 121 122 124 125 128 134 139 143 144 145 142 146 145 131 123 114 109 103 96 93 87 85 81 76 74 70 66 62 59
99 105 109 113 115 116 118 121 124 127 131 131 131 136 141 142 138 145 148 141 129 126 117 108 104 97 93 90 86 81 78 76 73 68 63 60 56 52

GFSNE_250_spd_102.txt.gz
Wind_Speed
58 62 62 63 64 64 64 63 60 63 64 68 69 71 68 69 71 65 70 68 62 62 64 64 67 71 72 71 72 70 61 53 50 52 53 55 58 61
50 56 60 64 66 69 70 69 70 70 74 73 69 70 69 65 67 62 60 59 61 63 67 69 73 73 73 75 72 65 53 53 53 56 58 60 62 65
59 64 61 60 59 62 63 66 64 63 63 68 62 62 67 59 58 57 59 63 67 67 72 73 74 77 77 74 68 60 56 58 56 59 63 67 71 74
57 65 64 64 62 60 60 59 65 68 61 57 57 56 58 60 62 63 64 66 71 72 74 77 77 73 69 62 55 57 61 63 65 69 72 75 78 82
49 54 57 57 59 58 58 61 60 56 55 56 62 65 65 62 65 69 71 71 72 74 74 68 60 57 57 58 60 65 67 72 75 76 81 85 87 87
51 47 47 50 52 55 56 54 55 56 58 57 59 64 64 67 70 73 73 74 71 60 58 60 62 63 64 67 69 70 75 77 82 86 88 86 87 91
45 47 49 51 54 55 56 56 57 59 59 60 58 61 67 70 72 69 64 60 59 61 64 66 69 71 73 75 78 82 85 87 89 90 91 88 94 99
49 51 53 53 55 57 58 58 59 60 62 64 63 59 57 57 58 60 62 65 68 70 72 74 77 80 81 83 85 88 89 88 89 91 95 100 105 107
40 43 45 48 50 51 52 51 50 50 50 52 53 55 57 60 64 67 69 73 76 78 80 81 82 84 86 88 90 91 94 97 96 99 100 99 102 108
44 46 47 48 48 50 52 53 54 56 57 59 60 61 63 66 69 72 75 76 76 78 81 86 89 91 94 95 97 100 102 102 103 108 107 109 111 114
50 51 51 52 53 54 57 58 59 60 62 66 68 69 70 71 75 78 79 80 81 85 86 83 84 91 95 102 102 103 105 107 109 111 112 119 119 126
51 52 54 56 59 60 62 63 65 65 64 65 67 71 69 71 75 75 77 78 78 81 87 92 99 105 99 100 101 108 111 117 117 115 123 125 127 129
50 54 58 63 63 64 63 62 64 65 65 68 70 70 69 72 74 74 79 85 87 88 90 99 97 102 103 104 110 114 119 122 123 124 128 133 135 137
54 57 61 57 55 59 62 62 67 72 73 79 82 78 77 79 85 89 88 90 89 98 93 101 107 108 109 113 116 122 128 128 127 128 134 136 138 141
46 62 55 65 61 67 63 64 68 66 83 83 85 82 86 95 97 93 91 98 101 107 108 113 110 117 114 122 124 127 131 128 132 135 137 138 141 143
63 64 71 70 79 71 78 85 75 84 90 93 93 95 96 97 97 101 104 101 109 115 115 115 117 121 126 127 133 129 131 135 137 142 143 143 144 135
72 80 81 79 82 85 92 93 91 90 95 99 102 99 102 102 102 106 109 107 114 117 120 122 123 127 131 135 136 135 137 138 141 139 132 132 131 126
80 81 86 88 91 97 100 97 92 93 100 104 112 104 104 105 103 104 117 119 123 118 124 125 125 130 133 136 134 130 129 127 133 131 129 125 121 119
93 91 99 99 98 99 99 105 106 112 114 114 111 113 116 115 125 122 132 124 124 121 132 130 131 133 140 138 136 126 123 127 125 123 123 119 113 107
105 105 106 107 109 112 113 113 118 118 121 120 122 121 122 128 135 136 129 133 127 130 137 134 140 143 142 131 129 131 121 121 119 113 114 109 101 97
97 98 104 113 119 123 125 123 123 124 123 123 125 128 131 134 136 133 129 135 142 142 142 139 144 138 125 125 123 120 116 111 106 103 98 94 92 88
97 99 102 105 106 110 113 116 121 124 128 129 132 132 134 137 136 139 140 140 142 141 142 138 124 124 125 116 113 104 99 102 98 94 89 84 81 77
95 96 95 98 101 103 109 115 121 125 128 130 133 136 134 136 136 135 136 137 137 129 123 120 119 120 110 103 99 102 97 92 89 85 80 75 71 69

GFSNE_250_spd_105.txt.gz
Wind_Speed
57 52 56 60 63 61 60 62 62 65 64 66 65 65 64 65 64 65 69 74 70 71 70 69 69 62 60 61 65 68 68 70 75 75 71 68 54 55
58 63 60 64 64 65 64 65 65 62 62 64 65 66 69 71 71 72 70 68 69 66 71 72 63 65 68 67 67 69 72 75 79 69 57 53 53 58
57 61 62 62 62 63 69 72 70 71 75 76 71 73 73 70 68 67 70 64 68 66 65 66 69 69 68 67 73 74 76 70 57 55 54 55 58 63
61 61 62 65 68 61 58 59 63 66 67 64 65 65 63 65 67 64 65 65 68 68 68 70 69 68 73 76 76 72 60 59 59 61 63 64 66 69
61 62 61 62 60 55 60 62 65 67 67 64 61 60 61 63 64 64 65 65 66 70 71 72 74 76 78 74 65 64 64 65 66 67 71 74 76 78
59 60 59 55 57 59 60 59 59 58 58 59 61 63 62 64 65 68 68 69 70 71 72 78 77 70 66 66 67 70 72 75 75 78 79 78 81 85
56 58 56 55 54 56 58 61 59 59 59 58 60 64 65 65 70 74 72 74 76 72 65 64 66 68 70 74 76 77 79 80 80 82 84 88 92 96
46 49 51 53 54 56 56 58 60 60 59 61 63 65 69 70 76 75 66 62 62 64 67 69 72 74 76 77 79 81 82 83 87 89 90 90 92 96
45 50 53 54 56 57 60 63 66 67 65 64 62 59 57 58 59 61 63 65 67 69 72 76 78 81 83 85 86 87 90 91 90 90 91 102 102 102
40 42 44 46 49 51 53 54 55 55 56 57 57 57 58 60 62 64 67 70 73 74 77 81 83 82 83 84 88 85 90 90 89 95 105 100 104 112
37 41 44 49 50 51 54 57 58 60 60 63 65 67 69 71 72 73 75 76 73 73 76 82 83 86 90 93 93 96 98 96 98 104 108 111 114 114
49 48 48 50 52 54 55 59 57 55 61 66 67 68 69 69 71 73 74 76 79 81 82 84 87 92 94 100 104 108 104 104 106 112 114 117 117 115
56 54 55 54 57 54 58 58 56 56 53 53 58 64 67 66 69 72 75 80 83 90 90 93 95 99 99 101 106 109 112 114 112 117 121 124 125 127
61 62 60 59 67 66 65 66 69 61 61 66 74 74 73 76 83 85 80 85 88 97 98 101 106 104 102 110 115 117 120 122 123 124 128 134 129 130
74 73 70 70 65 63 66 69 74 71 75 76 79 82 83 83 86 93 96 93 99 105 102 103 115 108 117 118 122 118 121 126 130 129 138 134 135 137
82 81 78 72 69 69 72 72 70 76 78 78 81 85 93 96 92 95 101 101 105 109 118 125 117 121 124 129 128 123 127 132 133 139 141 139 141 135
85 81 77 73 75 72 72 76 78 78 84 85 87 95 101 102 105 110 113 116 122 124 123 124 123 129 134 136 133 133 135 141 139 145 141 145 138 140
83 84 86 84 86 87 88 87 87 92 94 96 102 107 108 111 114 117 120 125 128 129 129 128 134 137 140 138 139 136 142 144 145 142 141 142 139 136
92 91 92 94 94 96 96 100 102 105 107 109 110 113 117 116 120 125 128 131 131 133 132 139 135 138 144 147 143 139 143 145 140 139 140 132 131 119
100 102 104 103 104 105 104 106 110 113 114 117 120 122 124 122 124 129 129 132 134 137 141 144 146 147 149 153 150 138 136 139 138 134 130 117 114 109
102 103 104 101 100 100 101 101 101 104 106 109 113 116 121 126 130 134 138 141 142 144 144 142 145 144 142 138 141 138 134 136 127 120 110 109 105 100
99 98 99 100 101 100 100 100 102 104 104 105 105 107 110 113 117 121 124 127 130 132 134 134 135 135 134 135 129 126 121 111 106 105 101 96 94 89
96 94 94 95 97 98 100 101 102 103 105 106 107 109 110 112 115 115 117 120 123 124 123 123 123 119 115 117 112 110 104 102 98 93 91 87 84 81